Norwood, MA

2:36 AM EDT on September 23, 2017 (GMT -0400)
Norwood Memorial

Weather History for KOWD - April, 2014

Change the Weather History Date:

Wednesday, April 30, 2014

  Actual Average Record
Temperature  
Mean Temperature 44 °F -  
Max Temperature 46 °F 63 °F 81 °F (2004)
Min Temperature 41 °F 40 °F 23 °F (2006)
Degree Days  
Heating Degree Days 22    
Moisture  
Dew Point 38 °F    
Average Humidity 83    
Maximum Humidity 97    
Minimum Humidity 68    
Precipitation  
Precipitation 0.25 in - - ()
Sea Level Pressure  
Sea Level Pressure 30.42 in    
Wind  
Wind Speed 7 mph (East)    
Max Wind Speed 14 mph    
Max Gust Speed 17 mph    
Visibility 9 miles    
Events Rain    
Averages and records for this station are not official NWS values.
T = Trace of Precipitation, MM = Missing Value Source: NWS Daily Summary

Daily Weather History Graph

Daily Weather History Graph

Search for Another Location

Airport or City:

Trip Planner

Search our weather history database for the weather conditions in past years. The results will help you decide how hot, cold, wet, or windy it might be!

Date:

Astronomy

Apr. 30, 2014 Rise Set
Actual Time 5:41 AM EDT 7:42 PM EDT
Civil Twilight 5:11 AM EDT 8:13 PM EDT
Nautical Twilight 4:34 AM EDT 8:50 PM EDT
Astronomical Twilight 3:53 AM EDT 9:31 PM EDT
Moon 6:40 AM EDT (4/30) 9:19 PM EDT (4/30)
Length of Visible Light 15h 02m
Length of Day
14h 01m
New Moon, 2% of the Moon is Illuminated
Apr 30
New Moon
May 6
First Quarter
May 14
Full
May 21
Last Quarter
May 28
New

Hourly Weather History & Observations

Time (EDT) Temp. Windchill Dew Point Humidity Pressure Visibility Wind Dir Wind Speed Gust Speed Precip Events Conditions
12:53 AM 41.0 °F 39.0 °F 35.1 °F 79% 30.53 in 10.0 mi East 3.5 mph - 0.00 in   Overcast
1:53 AM 41.0 °F 37.1 °F 35.1 °F 79% 30.52 in 10.0 mi ENE 5.8 mph - 0.00 in Rain Light Rain
2:53 AM 41.0 °F 37.1 °F 35.1 °F 79% 30.50 in 10.0 mi ENE 5.8 mph - 0.00 in   Overcast
3:53 AM 41.0 °F 37.1 °F 35.1 °F 79% 30.50 in 10.0 mi ENE 5.8 mph - N/A   Overcast
4:53 AM 41.0 °F 37.1 °F 35.1 °F 79% 30.53 in 10.0 mi NE 5.8 mph - N/A   Overcast
5:53 AM 41.0 °F 38.0 °F 36.0 °F 82% 30.53 in 10.0 mi ENE 4.6 mph - N/A   Overcast
7:53 AM 42.1 °F 36.6 °F 36.0 °F 79% 30.51 in 10.0 mi ENE 9.2 mph - 0.00 in Rain Light Rain
8:25 AM 42.1 °F 37.7 °F 37.0 °F 82% 30.52 in 8.0 mi ENE 6.9 mph - 0.02 in Rain Light Rain
8:53 AM 42.1 °F 37.1 °F 37.9 °F 85% 30.52 in 10.0 mi ENE 8.1 mph - 0.02 in Rain Light Rain
9:19 AM 42.1 °F 37.1 °F 37.0 °F 82% 30.50 in 9.0 mi ENE 8.1 mph - 0.00 in Rain Light Rain
9:33 AM 43.0 °F 38.8 °F 37.9 °F 82% 30.50 in 10.0 mi ENE 6.9 mph - 0.00 in Rain Light Rain
9:53 AM 43.0 °F 37.7 °F 37.9 °F 82% 30.51 in 10.0 mi ENE 9.2 mph - 0.00 in Rain Light Rain
11:53 AM 46.0 °F 40.6 °F 37.0 °F 71% 30.47 in 10.0 mi ESE 11.5 mph - N/A   Overcast
12:53 PM 46.0 °F 41.0 °F 37.9 °F 73% 30.45 in 10.0 mi East 10.4 mph - N/A   Overcast
1:53 PM 46.9 °F - 37.0 °F 68% 30.45 in 10.0 mi NE 8.1 mph - N/A   Overcast
2:53 PM 46.0 °F 39.9 °F 37.0 °F 71% 30.41 in 10.0 mi East 13.8 mph 17.3 mph N/A   Overcast
3:53 PM 46.0 °F 41.0 °F 37.9 °F 73% 30.39 in 10.0 mi ESE 10.4 mph - 0.00 in Rain Light Rain
4:53 PM 45.0 °F 40.1 °F 39.9 °F 82% 30.37 in 9.0 mi ESE 9.2 mph - 0.00 in Rain Light Rain
5:53 PM 43.0 °F 38.2 °F 39.9 °F 89% 30.36 in 6.0 mi East 8.1 mph - 0.02 in Rain Light Rain
6:41 PM 43.0 °F 39.5 °F 41.0 °F 93% 30.34 in 5.0 mi East 5.8 mph - 0.02 in Rain Light Rain
6:53 PM 43.0 °F 40.3 °F 39.9 °F 89% 30.35 in 4.0 mi East 4.6 mph - 0.03 in Rain Light Rain
8:00 PM 42.1 °F 37.1 °F 39.9 °F 92% 30.31 in 7.0 mi East 8.1 mph - 0.00 in Rain Light Rain
8:53 PM 42.1 °F 37.1 °F 41.0 °F 96% 30.29 in 4.0 mi East 8.1 mph - 0.04 in Rain Rain
9:53 PM 43.0 °F 40.3 °F 41.0 °F 93% 30.27 in 10.0 mi East 4.6 mph - 0.05 in Rain Light Rain
10:53 PM 43.0 °F 39.5 °F 42.1 °F 97% 30.22 in 6.0 mi East 5.8 mph - 0.03 in Rain Rain
11:53 PM 44.1 °F 40.8 °F 42.1 °F 93% 30.17 in 9.0 mi East 5.8 mph - 0.06 in Rain Light Rain